Time,TemperatureF,DewpointF,PressureIn,WindDirection,WindDirectionDegrees,WindSpeedMPH,WindSpeedGustMPH,Humidity,HourlyPrecipIn,Conditions,Clouds,dailyrainin,SoftwareType,DateUTC
2013-10-06 00:02:00,53.8,50.5,30.15,NNW,342,5.0,9.0,89,0.00,,,0.00,meteohub,2013-10-06 07:02:00,
2013-10-06 00:07:00,53.8,50.5,30.16,NNW,330,4.0,9.0,89,0.00,,,0.00,meteohub,2013-10-06 07:07:00,
2013-10-06 00:12:00,53.6,50.4,30.15,NNW,333,6.0,8.0,89,0.00,,,0.00,meteohub,2013-10-06 07:12:00,
2013-10-06 00:17:00,53.4,50.2,30.15,NNW,333,8.0,8.0,89,0.00,,,0.00,meteohub,2013-10-06 07:17:00,
2013-10-06 00:22:00,53.4,50.2,30.15,NNW,331,6.0,8.0,89,0.00,,,0.00,meteohub,2013-10-06 07:22:00,
2013-10-06 00:27:00,53.6,50.4,30.15,NNW,332,6.0,8.0,89,0.00,,,0.00,meteohub,2013-10-06 07:27:00,
2013-10-06 00:32:00,53.8,50.5,30.15,NNW,336,7.0,9.0,89,0.00,,,0.00,meteohub,2013-10-06 07:32:00,
2013-10-06 00:37:00,53.8,50.5,30.15,North,0,4.0,11.0,89,0.00,,,0.00,meteohub,2013-10-06 07:37:00,
2013-10-06 00:43:00,53.8,50.5,30.15,NNW,327,4.0,11.0,89,0.00,,,0.00,meteohub,2013-10-06 07:43:00,
2013-10-06 00:48:00,53.8,50.5,30.15,NNW,342,2.0,9.0,89,0.00,,,0.00,meteohub,2013-10-06 07:48:00,
2013-10-06 00:53:00,53.8,50.5,30.14,NW,317,6.0,9.0,89,0.00,,,0.00,meteohub,2013-10-06 07:53:00,
2013-10-06 00:58:00,53.6,50.4,30.15,NW,311,5.0,8.0,89,0.00,,,0.00,meteohub,2013-10-06 07:58:00,
2013-10-06 01:03:00,53.4,50.2,30.14,North,355,2.0,7.0,89,0.00,,,0.00,meteohub,2013-10-06 08:03:00,
2013-10-06 01:08:00,53.4,50.2,30.14,NW,321,1.0,6.0,89,0.00,,,0.00,meteohub,2013-10-06 08:08:00,
2013-10-06 01:13:00,53.2,50.0,30.14,NE,46,3.0,6.0,89,0.00,,,0.00,meteohub,2013-10-06 08:13:00,
2013-10-06 01:18:00,53.2,50.0,30.14,NE,40,1.0,6.0,89,0.00,,,0.00,meteohub,2013-10-06 08:18:00,
2013-10-06 01:23:00,53.1,50.2,30.13,North,9,3.0,6.0,90,0.00,,,0.00,meteohub,2013-10-06 08:23:00,
2013-10-06 01:28:00,52.9,49.6,30.13,NNE,13,1.0,6.0,89,0.00,,,0.00,meteohub,2013-10-06 08:28:00,
2013-10-06 01:33:00,52.7,49.8,30.13,North,355,5.0,5.0,90,0.00,,,0.00,meteohub,2013-10-06 08:33:00,
2013-10-06 01:38:00,52.5,49.6,30.12,NNE,24,3.0,5.0,90,0.00,,,0.00,meteohub,2013-10-06 08:38:00,
2013-10-06 01:43:00,52.3,49.5,30.12,NNE,24,1.0,5.0,90,0.00,,,0.00,meteohub,2013-10-06 08:43:00,
2013-10-06 01:49:00,52.2,49.3,30.12,NNE,24,0.0,5.0,90,0.00,,,0.00,meteohub,2013-10-06 08:49:00,
2013-10-06 01:54:00,52.2,49.6,30.12,NNW,341,2.0,5.0,91,0.00,,,0.00,meteohub,2013-10-06 08:54:00,
2013-10-06 01:59:00,52.2,49.6,30.12,North,355,2.0,5.0,91,0.00,,,0.00,meteohub,2013-10-06 08:59:00,
2013-10-06 02:04:00,52.2,49.6,30.12,North,355,0.0,5.0,91,0.00,,,0.00,meteohub,2013-10-06 09:04:00,
2013-10-06 02:09:00,52.2,49.8,30.12,NNW,330,4.0,5.0,92,0.00,,,0.00,meteohub,2013-10-06 09:09:00,
2013-10-06 02:14:00,52.2,49.6,30.12,NNW,338,1.0,6.0,91,0.00,,,0.00,meteohub,2013-10-06 09:14:00,
2013-10-06 02:20:00,51.8,49.3,30.11,NNW,338,0.0,6.0,91,0.00,,,0.00,meteohub,2013-10-06 09:20:00,
2013-10-06 02:25:00,51.6,49.1,30.11,NNE,15,0.0,4.0,91,0.00,,,0.00,meteohub,2013-10-06 09:25:00,
2013-10-06 02:31:00,51.4,48.9,30.11,NNE,15,0.0,3.0,91,0.00,,,0.00,meteohub,2013-10-06 09:31:00,
2013-10-06 02:36:00,51.3,48.7,30.11,NNE,15,0.0,3.0,91,0.00,,,0.00,meteohub,2013-10-06 09:36:00,
2013-10-06 02:41:00,51.3,48.7,30.11,NNE,15,0.0,2.0,91,0.00,,,0.00,meteohub,2013-10-06 09:41:00,
2013-10-06 02:47:00,51.3,48.7,30.10,NNE,15,0.0,2.0,91,0.00,,,0.00,meteohub,2013-10-06 09:47:00,
2013-10-06 02:52:00,51.3,49.1,30.10,NNE,15,0.0,2.0,92,0.00,,,0.00,meteohub,2013-10-06 09:52:00,
2013-10-06 02:57:00,51.1,48.9,30.10,NNE,15,0.0,2.0,92,0.00,,,0.00,meteohub,2013-10-06 09:57:00,
2013-10-06 03:02:00,51.1,48.9,30.10,NNE,15,2.0,2.0,92,0.00,,,0.00,meteohub,2013-10-06 10:02:00,
2013-10-06 03:07:00,51.1,48.9,30.09,NNE,15,1.0,2.0,92,0.00,,,0.00,meteohub,2013-10-06 10:07:00,
2013-10-06 03:12:00,51.1,48.9,30.09,NNE,15,0.0,2.0,92,0.00,,,0.00,meteohub,2013-10-06 10:12:00,
2013-10-06 03:17:00,50.9,48.7,30.09,NNE,15,0.0,2.0,92,0.00,,,0.00,meteohub,2013-10-06 10:17:00,
2013-10-06 03:22:00,50.9,48.7,30.09,NNW,338,0.0,2.0,92,0.00,,,0.00,meteohub,2013-10-06 10:22:00,
2013-10-06 03:27:00,50.9,48.7,30.09,NNW,338,0.0,4.0,92,0.00,,,0.00,meteohub,2013-10-06 10:27:00,
2013-10-06 03:32:00,50.9,48.7,30.08,NNW,346,2.0,4.0,92,0.00,,,0.00,meteohub,2013-10-06 10:32:00,
2013-10-06 03:37:00,51.1,49.1,30.08,NNW,346,1.0,4.0,93,0.00,,,0.00,meteohub,2013-10-06 10:37:00,
2013-10-06 03:42:00,51.1,48.9,30.08,NNW,344,0.0,4.0,92,0.00,,,0.00,meteohub,2013-10-06 10:42:00,
2013-10-06 03:47:00,50.9,48.7,30.08,NNW,344,2.0,5.0,92,0.00,,,0.00,meteohub,2013-10-06 10:47:00,
2013-10-06 03:52:00,50.7,48.6,30.07,NNW,337,1.0,5.0,92,0.00,,,0.00,meteohub,2013-10-06 10:52:00,
2013-10-06 03:57:00,50.7,48.6,30.07,WNW,300,0.0,5.0,92,0.00,,,0.00,meteohub,2013-10-06 10:57:00,
2013-10-06 04:02:00,50.7,48.6,30.07,WNW,299,0.0,4.0,92,0.00,,,0.00,meteohub,2013-10-06 11:02:00,
2013-10-06 04:07:00,50.7,48.7,30.07,WNW,300,0.0,4.0,93,0.00,,,0.00,meteohub,2013-10-06 11:07:00,
2013-10-06 04:12:00,50.7,48.7,30.06,NW,312,0.0,2.0,93,0.00,,,0.00,meteohub,2013-10-06 11:12:00,
2013-10-06 04:17:00,50.7,48.7,30.06,NW,312,0.0,4.0,93,0.00,,,0.00,meteohub,2013-10-06 11:17:00,
2013-10-06 04:22:00,50.7,48.7,30.06,NW,314,0.0,4.0,93,0.00,,,0.00,meteohub,2013-10-06 11:22:00,
2013-10-06 04:27:00,50.5,48.6,30.06,NW,314,0.0,4.0,93,0.00,,,0.00,meteohub,2013-10-06 11:27:00,
2013-10-06 04:32:00,50.7,48.7,30.06,NW,314,0.0,4.0,93,0.00,,,0.00,meteohub,2013-10-06 11:32:00,
2013-10-06 04:37:00,50.5,48.6,30.06,NW,314,0.0,2.0,93,0.00,,,0.00,meteohub,2013-10-06 11:37:00,
2013-10-06 04:42:00,50.5,48.6,30.06,NW,314,0.0,2.0,93,0.00,,,0.00,meteohub,2013-10-06 11:42:00,
2013-10-06 04:47:00,50.5,48.6,30.06,NW,314,0.0,2.0,93,0.00,,,0.00,meteohub,2013-10-06 11:47:00,
2013-10-06 04:52:00,50.4,48.4,30.06,NW,314,0.0,2.0,93,0.00,,,0.00,meteohub,2013-10-06 11:52:00,
2013-10-06 04:57:00,50.4,48.4,30.06,NW,314,0.0,1.0,93,0.00,,,0.00,meteohub,2013-10-06 11:57:00,
2013-10-06 05:02:00,50.2,48.2,30.06,NW,314,0.0,1.0,93,0.00,,,0.00,meteohub,2013-10-06 12:02:00,
2013-10-06 05:07:00,50.2,48.2,30.05,NW,314,0.0,1.0,93,0.00,,,0.00,meteohub,2013-10-06 12:07:00,
2013-10-06 05:12:00,50.0,48.0,30.05,NW,314,0.0,0.0,93,0.00,,,0.00,meteohub,2013-10-06 12:12:00,
2013-10-06 05:17:00,49.8,47.8,30.05,NW,314,0.0,0.0,93,0.00,,,0.00,meteohub,2013-10-06 12:17:00,
2013-10-06 05:22:00,49.8,47.8,30.05,NW,314,0.0,0.0,93,0.00,,,0.00,meteohub,2013-10-06 12:22:00,
2013-10-06 05:27:00,49.6,47.7,30.05,NW,314,0.0,1.0,93,0.00,,,0.00,meteohub,2013-10-06 12:27:00,
2013-10-06 05:32:00,49.6,47.7,30.05,NW,314,0.0,1.0,93,0.00,,,0.00,meteohub,2013-10-06 12:32:00,
2013-10-06 05:37:00,49.6,47.7,30.05,NW,314,0.0,1.0,93,0.00,,,0.00,meteohub,2013-10-06 12:37:00,
2013-10-06 05:42:00,49.6,47.7,30.05,NW,314,0.0,0.0,93,0.00,,,0.00,meteohub,2013-10-06 12:42:00,
2013-10-06 05:47:00,49.5,47.5,30.05,NW,314,0.0,0.0,93,0.00,,,0.00,meteohub,2013-10-06 12:47:00,
2013-10-06 05:52:00,49.5,47.5,30.05,NW,314,0.0,0.0,93,0.00,,,0.00,meteohub,2013-10-06 12:52:00,
2013-10-06 05:57:00,49.5,47.5,30.04,NW,314,0.0,0.0,93,0.00,,,0.00,meteohub,2013-10-06 12:57:00,
2013-10-06 06:02:00,49.5,47.5,30.04,NW,314,0.0,0.0,93,0.00,,,0.00,meteohub,2013-10-06 13:02:00,
2013-10-06 06:07:00,49.5,47.5,30.04,NW,314,0.0,0.0,93,0.00,,,0.00,meteohub,2013-10-06 13:07:00,
2013-10-06 06:12:00,49.3,47.3,30.04,NW,314,1.0,1.0,93,0.00,,,0.00,meteohub,2013-10-06 13:12:00,
2013-10-06 06:17:00,49.3,47.3,30.04,NW,314,0.0,1.0,93,0.00,,,0.00,meteohub,2013-10-06 13:17:00,
2013-10-06 06:22:00,49.3,47.3,30.04,NW,314,0.0,1.0,93,0.00,,,0.00,meteohub,2013-10-06 13:22:00,
2013-10-06 06:27:00,49.3,47.3,30.04,NW,314,0.0,1.0,93,0.00,,,0.00,meteohub,2013-10-06 13:27:00,
2013-10-06 06:32:00,49.1,47.1,30.04,NW,314,0.0,0.0,93,0.00,,,0.00,meteohub,2013-10-06 13:32:00,
2013-10-06 06:37:00,48.9,46.9,30.04,NW,314,0.0,1.0,93,0.00,,,0.00,meteohub,2013-10-06 13:37:00,
2013-10-06 06:42:00,48.9,46.9,30.04,NW,314,0.0,1.0,93,0.00,,,0.00,meteohub,2013-10-06 13:42:00,
2013-10-06 06:47:00,48.9,46.9,30.03,NW,314,0.0,1.0,93,0.00,,,0.00,meteohub,2013-10-06 13:47:00,
2013-10-06 06:52:00,48.7,46.8,30.03,NW,314,0.0,2.0,93,0.00,,,0.00,meteohub,2013-10-06 13:52:00,
2013-10-06 06:57:00,48.7,46.8,30.03,NW,314,0.0,2.0,93,0.00,,,0.00,meteohub,2013-10-06 13:57:00,
2013-10-06 07:02:00,48.7,46.8,30.03,NW,314,0.0,2.0,93,0.00,,,0.00,meteohub,2013-10-06 14:02:00,
2013-10-06 07:07:00,48.7,46.8,30.03,NW,314,0.0,2.0,93,0.00,,,0.00,meteohub,2013-10-06 14:07:00,
2013-10-06 07:12:00,48.7,46.8,30.03,NW,314,0.0,0.0,93,0.00,,,0.00,meteohub,2013-10-06 14:12:00,
2013-10-06 07:17:00,48.7,46.8,30.03,WNW,300,1.0,2.0,93,0.00,,,0.00,meteohub,2013-10-06 14:17:00,
2013-10-06 07:22:00,48.7,46.8,30.03,WNW,300,0.0,4.0,93,0.00,,,0.00,meteohub,2013-10-06 14:22:00,
2013-10-06 07:27:00,48.6,46.6,30.03,WNW,300,0.0,4.0,93,0.00,,,0.00,meteohub,2013-10-06 14:27:00,
2013-10-06 07:32:00,48.6,46.6,30.03,WNW,300,0.0,2.0,93,0.00,,,0.00,meteohub,2013-10-06 14:32:00,
2013-10-06 07:37:00,48.6,46.9,30.03,WNW,300,0.0,2.0,94,0.00,,,0.00,meteohub,2013-10-06 14:37:00,
2013-10-06 07:42:00,48.6,46.9,30.03,WNW,300,0.0,2.0,94,0.00,,,0.00,meteohub,2013-10-06 14:42:00,
2013-10-06 07:47:00,48.7,47.1,30.03,NW,304,1.0,4.0,94,0.00,,,0.00,meteohub,2013-10-06 14:47:00,
2013-10-06 07:52:00,48.6,46.9,30.02,NW,304,0.0,4.0,94,0.00,,,0.00,meteohub,2013-10-06 14:52:00,
2013-10-06 07:57:00,48.6,46.9,30.02,WNW,290,0.0,4.0,94,0.00,,,0.00,meteohub,2013-10-06 14:57:00,
2013-10-06 08:02:00,48.7,47.1,30.02,WNW,292,0.0,4.0,94,0.00,,,0.00,meteohub,2013-10-06 15:02:00,
2013-10-06 08:07:00,48.7,47.1,30.02,NW,313,0.0,4.0,94,0.00,,,0.00,meteohub,2013-10-06 15:07:00,
2013-10-06 08:12:00,48.7,47.1,30.02,NW,312,0.0,4.0,94,0.00,,,0.00,meteohub,2013-10-06 15:12:00,
2013-10-06 08:17:00,48.7,47.1,30.01,WNW,292,0.0,2.0,94,0.00,,,0.00,meteohub,2013-10-06 15:17:00,
2013-10-06 08:22:00,49.1,47.5,30.01,WNW,292,0.0,4.0,94,0.00,,,0.00,meteohub,2013-10-06 15:22:00,
2013-10-06 08:27:00,49.3,47.7,30.01,West,274,0.0,5.0,94,0.00,,,0.00,meteohub,2013-10-06 15:27:00,
2013-10-06 08:32:00,49.8,48.2,30.01,NNW,328,2.0,5.0,94,0.00,,,0.00,meteohub,2013-10-06 15:32:00,
2013-10-06 08:37:00,50.4,48.9,30.01,NNW,328,0.0,5.0,95,0.00,,,0.00,meteohub,2013-10-06 15:37:00,
2013-10-06 08:42:00,50.5,48.9,30.01,NNW,328,1.0,5.0,94,0.00,,,0.00,meteohub,2013-10-06 15:42:00,
2013-10-06 08:47:00,50.5,48.9,30.01,NNW,330,2.0,5.0,94,0.00,,,0.00,meteohub,2013-10-06 15:47:00,
2013-10-06 08:52:00,50.5,48.6,30.01,NNW,348,4.0,6.0,93,0.00,,,0.00,meteohub,2013-10-06 15:52:00,
2013-10-06 08:57:00,50.7,49.1,30.01,NNW,335,1.0,6.0,94,0.00,,,0.00,meteohub,2013-10-06 15:57:00,
2013-10-06 09:02:00,51.1,49.5,30.00,NNW,335,0.0,6.0,94,0.00,,,0.00,meteohub,2013-10-06 16:02:00,
2013-10-06 09:07:00,51.3,49.6,30.00,NNW,333,2.0,5.0,94,0.00,,,0.00,meteohub,2013-10-06 16:07:00,
2013-10-06 09:12:00,51.4,49.5,30.00,NNW,331,1.0,5.0,93,0.00,,,0.00,meteohub,2013-10-06 16:12:00,
2013-10-06 09:17:00,51.4,49.5,30.00,NNW,345,2.0,5.0,93,0.00,,,0.00,meteohub,2013-10-06 16:17:00,
2013-10-06 09:22:00,51.6,49.6,30.00,NNW,346,4.0,6.0,93,0.00,,,0.00,meteohub,2013-10-06 16:22:00,
2013-10-06 09:27:00,51.6,49.6,29.99,North,0,1.0,6.0,93,0.00,,,0.00,meteohub,2013-10-06 16:27:00,
2013-10-06 09:32:00,51.6,49.6,29.99,North,0,1.0,5.0,93,0.00,,,0.00,meteohub,2013-10-06 16:32:00,
2013-10-06 09:37:00,51.6,49.6,29.99,North,0,0.0,4.0,93,0.00,,,0.00,meteohub,2013-10-06 16:37:00,
2013-10-06 09:42:00,51.8,49.8,29.99,North,0,0.0,2.0,93,0.00,,,0.00,meteohub,2013-10-06 16:42:00,
2013-10-06 09:47:00,52.2,50.2,29.99,North,0,0.0,2.0,93,0.00,,,0.00,meteohub,2013-10-06 16:47:00,
2013-10-06 09:52:00,52.5,50.5,30.00,North,0,0.0,2.0,93,0.00,,,0.00,meteohub,2013-10-06 16:52:00,
2013-10-06 09:57:00,53.1,51.1,29.99,North,0,0.0,0.0,93,0.00,,,0.00,meteohub,2013-10-06 16:57:00,
2013-10-06 10:02:00,53.6,51.6,30.00,North,0,0.0,0.0,93,0.00,,,0.00,meteohub,2013-10-06 17:02:00,
2013-10-06 10:07:00,54.1,51.8,29.99,North,0,0.0,0.0,92,0.00,,,0.00,meteohub,2013-10-06 17:07:00,
2013-10-06 10:12:00,54.7,52.3,29.99,North,0,0.0,0.0,92,0.00,,,0.00,meteohub,2013-10-06 17:12:00,
2013-10-06 10:17:00,55.2,52.7,29.99,North,0,0.0,0.0,91,0.00,,,0.00,meteohub,2013-10-06 17:17:00,
2013-10-06 10:22:00,55.4,52.5,29.99,NNE,13,0.0,0.0,90,0.00,,,0.00,meteohub,2013-10-06 17:22:00,
2013-10-06 10:27:00,55.6,52.3,29.99,East,97,0.0,2.0,89,0.00,,,0.00,meteohub,2013-10-06 17:27:00,
2013-10-06 10:32:00,55.4,52.0,29.99,ESE,109,5.0,5.0,88,0.00,,,0.00,meteohub,2013-10-06 17:32:00,
2013-10-06 10:37:00,55.2,51.8,29.99,SE,126,4.0,5.0,88,0.00,,,0.00,meteohub,2013-10-06 17:37:00,
2013-10-06 10:42:00,55.4,52.0,29.98,SE,127,5.0,5.0,88,0.00,,,0.00,meteohub,2013-10-06 17:42:00,
2013-10-06 10:47:00,55.6,52.2,29.98,SE,129,2.0,5.0,88,0.00,,,0.00,meteohub,2013-10-06 17:47:00,
2013-10-06 10:52:00,55.8,52.0,29.98,SE,129,2.0,5.0,87,0.00,,,0.00,meteohub,2013-10-06 17:52:00,
2013-10-06 10:57:00,55.9,52.2,29.98,SE,129,2.0,6.0,87,0.00,,,0.00,meteohub,2013-10-06 17:57:00,
2013-10-06 11:02:00,56.1,52.3,29.98,SE,130,2.0,6.0,87,0.00,,,0.00,meteohub,2013-10-06 18:02:00,
2013-10-06 11:07:00,56.3,52.2,29.98,SE,130,1.0,5.0,86,0.00,,,0.00,meteohub,2013-10-06 18:07:00,
2013-10-06 11:12:00,56.5,52.3,29.98,South,173,4.0,5.0,86,0.00,,,0.00,meteohub,2013-10-06 18:12:00,
2013-10-06 11:17:00,56.7,52.2,29.98,SSE,155,4.0,7.0,85,0.00,,,0.00,meteohub,2013-10-06 18:17:00,
2013-10-06 11:22:00,56.7,52.2,29.98,SSE,153,7.0,8.0,85,0.00,,,0.00,meteohub,2013-10-06 18:22:00,
2013-10-06 11:27:00,56.7,52.2,29.97,SE,130,7.0,9.0,85,0.00,,,0.00,meteohub,2013-10-06 18:27:00,
2013-10-06 11:32:00,56.5,52.0,29.98,South,180,4.0,9.0,85,0.00,,,0.00,meteohub,2013-10-06 18:32:00,
2013-10-06 11:37:00,56.3,51.8,29.97,SE,140,5.0,9.0,85,0.00,,,0.00,meteohub,2013-10-06 18:37:00,
2013-10-06 11:42:00,56.5,52.0,29.97,South,176,7.0,9.0,85,0.00,,,0.00,meteohub,2013-10-06 18:42:00,
2013-10-06 11:47:00,56.5,52.0,29.96,South,170,4.0,10.0,85,0.00,,,0.00,meteohub,2013-10-06 18:47:00,
2013-10-06 11:52:00,56.7,51.8,29.96,SE,142,5.0,10.0,84,0.00,,,0.00,meteohub,2013-10-06 18:52:00,
2013-10-06 11:57:00,56.7,51.8,29.96,SE,136,6.0,10.0,84,0.00,,,0.00,meteohub,2013-10-06 18:57:00,
2013-10-06 12:02:00,56.8,52.3,29.96,SSE,148,0.0,11.0,85,0.00,,,0.00,meteohub,2013-10-06 19:02:00,
2013-10-06 12:07:00,57.0,52.2,29.95,SE,142,2.0,11.0,84,0.00,,,0.00,meteohub,2013-10-06 19:07:00,
2013-10-06 12:12:00,57.2,52.3,29.94,SE,140,2.0,11.0,84,0.00,,,0.00,meteohub,2013-10-06 19:12:00,
2013-10-06 12:17:00,57.2,52.3,29.94,SSE,160,6.0,8.0,84,0.00,,,0.00,meteohub,2013-10-06 19:17:00,
2013-10-06 12:22:00,57.4,52.5,29.94,SSE,148,6.0,8.0,84,0.00,,,0.00,meteohub,2013-10-06 19:22:00,
2013-10-06 12:27:00,57.0,52.2,29.94,SE,144,7.0,11.0,84,0.00,,,0.00,meteohub,2013-10-06 19:27:00,
2013-10-06 12:32:00,56.8,52.0,29.94,SE,143,5.0,11.0,84,0.00,,,0.00,meteohub,2013-10-06 19:32:00,
2013-10-06 12:37:00,56.7,52.2,29.93,ESE,119,4.0,11.0,85,0.00,,,0.00,meteohub,2013-10-06 19:37:00,
2013-10-06 12:42:00,56.5,52.3,29.93,SE,129,5.0,9.0,86,0.00,,,0.00,meteohub,2013-10-06 19:42:00,
2013-10-06 12:47:00,56.5,52.3,29.93,ESE,118,4.0,9.0,86,0.00,,,0.00,meteohub,2013-10-06 19:47:00,
2013-10-06 12:52:00,56.5,52.3,29.92,ESE,118,2.0,8.0,86,0.00,,,0.00,meteohub,2013-10-06 19:52:00,
2013-10-06 12:57:00,56.5,52.3,29.92,SE,128,4.0,7.0,86,0.00,,,0.00,meteohub,2013-10-06 19:57:00,
2013-10-06 13:02:00,56.3,52.2,29.92,SE,134,4.0,6.0,86,0.00,,,0.00,meteohub,2013-10-06 20:02:00,
2013-10-06 13:07:00,56.3,52.2,29.91,SE,134,2.0,6.0,86,0.00,,,0.00,meteohub,2013-10-06 20:07:00,
2013-10-06 13:12:00,56.5,52.3,29.91,SSE,159,4.0,6.0,86,0.00,,,0.00,meteohub,2013-10-06 20:12:00,
2013-10-06 13:17:00,56.7,52.5,29.91,SE,128,2.0,6.0,86,0.00,,,0.00,meteohub,2013-10-06 20:17:00,
2013-10-06 13:22:00,56.7,52.5,29.91,SSE,161,2.0,6.0,86,0.00,,,0.00,meteohub,2013-10-06 20:22:00,
2013-10-06 13:27:00,56.7,52.5,29.90,SSE,161,4.0,6.0,86,0.00,,,0.00,meteohub,2013-10-06 20:27:00,
2013-10-06 13:32:00,57.0,52.5,29.91,SE,132,5.0,6.0,85,0.00,,,0.00,meteohub,2013-10-06 20:32:00,
2013-10-06 13:37:00,57.0,52.5,29.91,SE,145,8.0,9.0,85,0.00,,,0.00,meteohub,2013-10-06 20:37:00,
2013-10-06 13:42:00,57.2,52.7,29.90,South,171,10.0,11.0,85,0.00,,,0.00,meteohub,2013-10-06 20:42:00,
2013-10-06 13:47:00,57.4,52.5,29.90,SSW,192,5.0,13.0,84,0.00,,,0.00,meteohub,2013-10-06 20:47:00,
2013-10-06 13:52:00,57.4,52.5,29.89,SSE,150,7.0,13.0,84,0.00,,,0.00,meteohub,2013-10-06 20:52:00,
2013-10-06 13:57:00,57.2,52.3,29.89,SSE,150,5.0,12.0,84,0.00,,,0.00,meteohub,2013-10-06 20:57:00,
2013-10-06 14:02:00,57.4,52.5,29.89,SE,144,4.0,11.0,84,0.00,,,0.00,meteohub,2013-10-06 21:02:00,
2013-10-06 14:07:00,57.4,52.9,29.88,SE,145,0.0,10.0,85,0.00,,,0.00,meteohub,2013-10-06 21:07:00,
2013-10-06 14:12:00,57.7,53.2,29.88,SE,145,0.0,9.0,85,0.00,,,0.00,meteohub,2013-10-06 21:12:00,
2013-10-06 14:17:00,58.1,53.2,29.87,SE,145,0.0,7.0,84,0.00,,,0.00,meteohub,2013-10-06 21:17:00,
2013-10-06 14:22:00,58.3,53.4,29.87,SE,145,0.0,5.0,84,0.00,,,0.00,meteohub,2013-10-06 21:22:00,
2013-10-06 14:27:00,58.6,53.4,29.86,NE,36,5.0,5.0,83,0.00,,,0.00,meteohub,2013-10-06 21:27:00,
2013-10-06 14:33:00,59.2,53.6,29.86,NNE,21,1.0,6.0,82,0.00,,,0.00,meteohub,2013-10-06 21:33:00,
2013-10-06 14:38:00,59.5,54.0,29.86,NE,47,2.0,6.0,82,0.00,,,0.00,meteohub,2013-10-06 21:38:00,
2013-10-06 14:43:00,59.7,54.0,29.86,NE,37,4.0,6.0,81,0.00,,,0.00,meteohub,2013-10-06 21:43:00,
2013-10-06 14:48:00,59.9,54.1,29.85,North,9,3.0,6.0,81,0.00,,,0.00,meteohub,2013-10-06 21:48:00,
2013-10-06 14:53:00,60.1,54.3,29.85,North,9,0.0,6.0,81,0.00,,,0.00,meteohub,2013-10-06 21:53:00,
2013-10-06 14:58:00,60.3,54.1,29.85,East,84,3.0,5.0,80,0.00,,,0.00,meteohub,2013-10-06 21:58:00,
2013-10-06 15:03:00,60.4,54.3,29.85,ENE,66,0.0,4.0,80,0.00,,,0.00,meteohub,2013-10-06 22:03:00,
2013-10-06 15:08:00,61.2,53.2,29.85,South,188,13.0,13.0,75,0.00,,,0.00,meteohub,2013-10-06 22:08:00,
2013-10-06 15:13:00,62.6,53.4,29.85,SSW,209,13.0,14.0,72,0.00,,,0.00,meteohub,2013-10-06 22:13:00,
2013-10-06 15:18:00,62.8,53.2,29.84,South,175,7.0,19.0,71,0.00,,,0.00,meteohub,2013-10-06 22:18:00,
2013-10-06 15:23:00,63.1,52.9,29.84,SSW,202,4.0,19.0,69,0.00,,,0.00,meteohub,2013-10-06 22:23:00,
2013-10-06 15:28:00,63.7,52.9,29.83,SSE,155,15.0,19.0,68,0.00,,,0.00,meteohub,2013-10-06 22:28:00,
2013-10-06 15:33:00,64.0,52.9,29.83,SE,134,13.0,15.0,67,0.00,,,0.00,meteohub,2013-10-06 22:33:00,
2013-10-06 15:38:00,64.6,52.2,29.83,SE,144,10.0,17.0,64,0.00,,,0.00,meteohub,2013-10-06 22:38:00,
2013-10-06 15:44:00,65.1,51.8,29.82,South,185,7.0,17.0,62,0.00,,,0.00,meteohub,2013-10-06 22:44:00,
2013-10-06 15:49:00,65.7,50.9,29.82,SSE,155,16.0,16.0,59,0.00,,,0.00,meteohub,2013-10-06 22:49:00,
2013-10-06 15:54:00,66.4,50.2,29.82,SSE,162,9.0,16.0,56,0.00,,,0.00,meteohub,2013-10-06 22:54:00,
2013-10-06 15:59:00,66.7,49.6,29.82,SSE,150,14.0,16.0,54,0.00,,,0.00,meteohub,2013-10-06 22:59:00,
2013-10-06 16:04:00,67.1,49.5,29.81,South,178,8.0,19.0,53,0.00,,,0.00,meteohub,2013-10-06 23:04:00,
2013-10-06 16:09:00,67.5,49.3,29.81,South,174,4.0,21.0,52,0.00,,,0.00,meteohub,2013-10-06 23:09:00,
2013-10-06 16:14:00,67.5,49.8,29.81,SSW,204,6.0,21.0,53,0.00,,,0.00,meteohub,2013-10-06 23:14:00,
2013-10-06 16:19:00,66.4,51.6,29.81,SE,144,12.0,21.0,59,0.00,,,0.00,meteohub,2013-10-06 23:19:00,
2013-10-06 16:24:00,64.9,51.6,29.81,South,174,7.0,19.0,62,0.00,,,0.00,meteohub,2013-10-06 23:24:00,
2013-10-06 16:29:00,63.9,52.3,29.81,SSW,194,5.0,15.0,66,0.00,,,0.00,meteohub,2013-10-06 23:29:00,
2013-10-06 16:34:00,62.8,52.5,29.81,SSE,167,7.0,15.0,69,0.00,,,0.00,meteohub,2013-10-06 23:34:00,
2013-10-06 16:39:00,61.9,52.0,29.80,South,176,8.0,13.0,70,0.00,,,0.00,meteohub,2013-10-06 23:39:00,
2013-10-06 16:44:00,61.5,52.0,29.81,South,186,10.0,15.0,71,0.00,,,0.00,meteohub,2013-10-06 23:44:00,
2013-10-06 16:50:00,62.1,51.8,29.80,SSE,162,11.0,15.0,69,0.00,,,0.00,meteohub,2013-10-06 23:50:00,
2013-10-06 16:55:00,62.2,52.0,29.80,SE,141,11.0,15.0,69,0.00,,,0.00,meteohub,2013-10-06 23:55:00,
2013-10-06 17:00:00,62.6,51.1,29.80,SW,217,5.0,15.0,66,0.00,,,0.00,meteohub,2013-10-07 00:00:00,
2013-10-06 17:05:00,63.9,49.3,29.79,SE,131,13.0,14.0,59,0.00,,,0.00,meteohub,2013-10-07 00:05:00,
2013-10-06 17:10:00,65.7,48.6,29.79,SSW,209,5.0,15.0,54,0.00,,,0.00,meteohub,2013-10-07 00:10:00,
2013-10-06 17:15:00,64.9,51.1,29.79,SE,145,13.0,18.0,61,0.00,,,0.00,meteohub,2013-10-07 00:15:00,
2013-10-06 17:20:00,63.3,50.9,29.79,SSW,213,5.0,19.0,64,0.00,,,0.00,meteohub,2013-10-07 00:20:00,
2013-10-06 17:25:00,62.4,50.5,29.78,South,184,14.0,19.0,65,0.00,,,0.00,meteohub,2013-10-07 00:25:00,
2013-10-06 17:30:00,62.4,50.0,29.78,SSE,161,7.0,21.0,64,0.00,,,0.00,meteohub,2013-10-07 00:30:00,
2013-10-06 17:35:00,63.0,49.8,29.78,South,170,5.0,21.0,62,0.00,,,0.00,meteohub,2013-10-07 00:35:00,
2013-10-06 17:40:00,64.0,48.6,29.78,South,173,11.0,21.0,57,0.00,,,0.00,meteohub,2013-10-07 00:40:00,
2013-10-06 17:45:00,65.3,48.7,29.77,SE,143,10.0,17.0,55,0.00,,,0.00,meteohub,2013-10-07 00:45:00,
2013-10-06 17:50:00,65.8,48.7,29.77,SE,144,5.0,17.0,54,0.00,,,0.00,meteohub,2013-10-07 00:50:00,
2013-10-06 17:55:00,66.2,48.6,29.77,SW,219,5.0,17.0,53,0.00,,,0.00,meteohub,2013-10-07 00:55:00,
2013-10-06 18:01:00,65.8,50.2,29.78,SE,137,11.0,12.0,57,0.00,,,0.00,meteohub,2013-10-07 01:01:00,
2013-10-06 18:06:00,64.9,49.3,29.78,ESE,118,13.0,13.0,57,0.00,,,0.00,meteohub,2013-10-07 01:06:00,
2013-10-06 18:11:00,65.1,49.1,29.77,South,180,6.0,17.0,56,0.00,,,0.00,meteohub,2013-10-07 01:11:00,
2013-10-06 18:16:00,65.1,48.6,29.77,SW,219,8.0,17.0,55,0.00,,,0.00,meteohub,2013-10-07 01:16:00,
2013-10-06 18:21:00,64.9,48.9,29.78,SSE,161,4.0,17.0,56,0.00,,,0.00,meteohub,2013-10-07 01:21:00,
2013-10-06 18:26:00,64.6,50.0,29.77,SSW,196,2.0,15.0,59,0.00,,,0.00,meteohub,2013-10-07 01:26:00,
2013-10-06 18:31:00,63.9,49.6,29.78,SSE,167,8.0,10.0,60,0.00,,,0.00,meteohub,2013-10-07 01:31:00,
2013-10-06 18:36:00,63.3,49.3,29.78,South,179,4.0,11.0,60,0.00,,,0.00,meteohub,2013-10-07 01:36:00,
2013-10-06 18:41:00,63.0,49.8,29.78,SSE,149,9.0,11.0,62,0.00,,,0.00,meteohub,2013-10-07 01:41:00,
2013-10-06 18:46:00,63.0,49.8,29.78,South,187,11.0,16.0,62,0.00,,,0.00,meteohub,2013-10-07 01:46:00,
2013-10-06 18:51:00,63.0,49.3,29.78,SSE,150,13.0,17.0,61,0.00,,,0.00,meteohub,2013-10-07 01:51:00,
2013-10-06 18:56:00,63.1,49.1,29.78,South,169,13.0,20.0,60,0.00,,,0.00,meteohub,2013-10-07 01:56:00,
2013-10-06 19:02:00,63.5,48.9,29.77,SE,138,11.0,20.0,59,0.00,,,0.00,meteohub,2013-10-07 02:02:00,
2013-10-06 19:07:00,63.7,49.5,29.77,SSE,157,14.0,20.0,60,0.00,,,0.00,meteohub,2013-10-07 02:07:00,
2013-10-06 19:12:00,63.9,49.3,29.76,South,171,11.0,24.0,59,0.00,,,0.00,meteohub,2013-10-07 02:12:00,
2013-10-06 19:17:00,63.7,49.5,29.77,South,173,9.0,24.0,60,0.00,,,0.00,meteohub,2013-10-07 02:17:00,
2013-10-06 19:22:00,63.5,49.3,29.77,SSE,167,10.0,24.0,60,0.00,,,0.00,meteohub,2013-10-07 02:22:00,
2013-10-06 19:27:00,63.7,49.5,29.77,SSE,157,10.0,19.0,60,0.00,,,0.00,meteohub,2013-10-07 02:27:00,
2013-10-06 19:32:00,63.7,49.1,29.77,SE,134,8.0,18.0,59,0.00,,,0.00,meteohub,2013-10-07 02:32:00,
2013-10-06 19:37:00,63.7,49.5,29.77,South,184,10.0,18.0,60,0.00,,,0.00,meteohub,2013-10-07 02:37:00,
2013-10-06 19:42:00,63.7,49.1,29.78,SSW,201,8.0,16.0,59,0.00,,,0.00,meteohub,2013-10-07 02:42:00,
2013-10-06 19:47:00,63.7,49.1,29.78,SE,141,11.0,16.0,59,0.00,,,0.00,meteohub,2013-10-07 02:47:00,
2013-10-06 19:52:00,63.7,49.1,29.78,SE,132,12.0,19.0,59,0.00,,,0.00,meteohub,2013-10-07 02:52:00,
2013-10-06 19:57:00,63.7,49.1,29.78,SSE,149,11.0,19.0,59,0.00,,,0.00,meteohub,2013-10-07 02:57:00,
2013-10-06 20:02:00,63.5,48.9,29.77,SE,144,13.0,19.0,59,0.00,,,0.00,meteohub,2013-10-07 03:02:00,
2013-10-06 20:07:00,63.1,48.6,29.77,SSE,150,16.0,19.0,59,0.00,,,0.00,meteohub,2013-10-07 03:07:00,
2013-10-06 20:12:00,63.1,48.2,29.77,SSE,163,13.0,19.0,58,0.00,,,0.00,meteohub,2013-10-07 03:12:00,
2013-10-06 20:17:00,63.1,49.1,29.76,SE,144,18.0,21.0,60,0.00,,,0.00,meteohub,2013-10-07 03:17:00,
2013-10-06 20:22:00,62.8,48.2,29.76,SE,142,14.0,21.0,59,0.00,,,0.00,meteohub,2013-10-07 03:22:00,
2013-10-06 20:27:00,62.8,48.2,29.76,SE,143,17.0,21.0,59,0.00,,,0.00,meteohub,2013-10-07 03:27:00,
2013-10-06 20:32:00,62.8,48.2,29.75,SE,142,9.0,21.0,59,0.00,,,0.00,meteohub,2013-10-07 03:32:00,
2013-10-06 20:37:00,62.4,48.4,29.75,SSE,159,11.0,20.0,60,0.00,,,0.00,meteohub,2013-10-07 03:37:00,
2013-10-06 20:42:00,62.1,48.9,29.76,ESE,120,11.0,18.0,62,0.00,,,0.00,meteohub,2013-10-07 03:42:00,
2013-10-06 20:47:00,61.5,48.7,29.76,South,191,3.0,17.0,63,0.00,,,0.00,meteohub,2013-10-07 03:47:00,
2013-10-06 20:52:00,60.8,50.2,29.78,SSW,193,2.0,13.0,68,0.00,,,0.00,meteohub,2013-10-07 03:52:00,
2013-10-06 20:57:00,59.7,51.4,29.79,West,267,3.0,13.0,74,0.01,,,0.01,meteohub,2013-10-07 03:57:00,
2013-10-06 21:01:00,58.5,51.3,29.79,West,261,2.0,9.0,77,0.04,,,0.04,meteohub,2013-10-07 04:01:00,
2013-10-06 21:02:00,58.3,51.4,29.79,West,261,0.0,9.0,78,0.04,,,0.04,meteohub,2013-10-07 04:02:00,
2013-10-06 21:03:00,57.9,51.4,29.79,West,261,0.0,9.0,79,0.04,,,0.04,meteohub,2013-10-07 04:03:00,
2013-10-06 21:08:00,57.2,51.8,29.79,ENE,62,3.0,5.0,82,0.05,,,0.05,meteohub,2013-10-07 04:08:00,
2013-10-06 21:13:00,56.5,51.4,29.79,WSW,243,2.0,5.0,83,0.06,,,0.06,meteohub,2013-10-07 04:13:00,
2013-10-06 21:19:00,55.9,51.3,29.80,WSW,247,0.0,5.0,84,0.06,,,0.06,meteohub,2013-10-07 04:19:00,
2013-10-06 21:24:00,55.6,51.4,29.80,WSW,247,0.0,5.0,86,0.06,,,0.06,meteohub,2013-10-07 04:24:00,
2013-10-06 21:29:00,55.2,51.1,29.79,WSW,247,0.0,4.0,86,0.07,,,0.07,meteohub,2013-10-07 04:29:00,
2013-10-06 21:34:00,55.2,50.7,29.79,SW,225,0.0,2.0,85,0.07,,,0.07,meteohub,2013-10-07 04:34:00,
2013-10-06 21:39:00,55.8,50.0,29.78,SSE,147,9.0,9.0,81,0.07,,,0.07,meteohub,2013-10-07 04:39:00,
2013-10-06 21:44:00,56.8,50.4,29.79,SE,143,6.0,12.0,79,0.07,,,0.07,meteohub,2013-10-07 04:44:00,
2013-10-06 21:49:00,57.6,50.0,29.79,SSE,161,5.0,12.0,76,0.07,,,0.07,meteohub,2013-10-07 04:49:00,
2013-10-06 21:54:00,57.9,50.4,29.78,SE,130,7.0,14.0,76,0.06,,,0.07,meteohub,2013-10-07 04:54:00,
2013-10-06 21:59:00,58.1,50.2,29.78,SSE,149,8.0,14.0,75,0.05,,,0.07,meteohub,2013-10-07 04:59:00,
2013-10-06 22:04:00,58.1,49.8,29.78,SE,146,6.0,14.0,74,0.03,,,0.07,meteohub,2013-10-07 05:04:00,
2013-10-06 22:09:00,58.1,49.8,29.78,SSE,150,8.0,14.0,74,0.01,,,0.07,meteohub,2013-10-07 05:09:00,
2013-10-06 22:14:00,58.1,50.5,29.77,SSE,165,6.0,14.0,76,0.01,,,0.07,meteohub,2013-10-07 05:14:00,
2013-10-06 22:19:00,58.3,50.0,29.77,SSE,167,7.0,14.0,74,0.01,,,0.07,meteohub,2013-10-07 05:19:00,
2013-10-06 22:25:00,58.3,49.6,29.77,SE,146,4.0,13.0,73,0.01,,,0.07,meteohub,2013-10-07 05:25:00,
2013-10-06 22:30:00,58.5,49.8,29.76,ESE,105,2.0,13.0,73,0.00,,,0.07,meteohub,2013-10-07 05:30:00,
2013-10-06 22:35:00,58.8,50.2,29.76,SSE,153,6.0,11.0,73,0.00,,,0.07,meteohub,2013-10-07 05:35:00,
2013-10-06 22:40:00,59.2,50.2,29.76,ESE,106,5.0,14.0,72,0.00,,,0.07,meteohub,2013-10-07 05:40:00,
2013-10-06 22:45:00,59.4,50.4,29.76,SE,140,10.0,14.0,72,0.00,,,0.07,meteohub,2013-10-07 05:45:00,
2013-10-06 22:50:00,59.7,50.0,29.76,SE,124,11.0,17.0,70,0.00,,,0.07,meteohub,2013-10-07 05:50:00,
2013-10-06 22:55:00,60.1,49.8,29.76,ESE,121,9.0,17.0,69,0.00,,,0.07,meteohub,2013-10-07 05:55:00,
2013-10-06 23:00:00,60.3,49.6,29.76,SE,146,10.0,20.0,68,0.00,,,0.07,meteohub,2013-10-07 06:00:00,
2013-10-06 23:05:00,60.6,49.6,29.76,SSE,163,6.0,20.0,67,0.00,,,0.07,meteohub,2013-10-07 06:05:00,
2013-10-06 23:10:00,61.2,49.3,29.77,SSE,167,16.0,19.0,65,0.00,,,0.07,meteohub,2013-10-07 06:10:00,
2013-10-06 23:15:00,61.0,49.1,29.76,ESE,104,12.0,20.0,65,0.00,,,0.07,meteohub,2013-10-07 06:15:00,
2013-10-06 23:20:00,60.4,49.5,29.75,SSE,157,5.0,20.0,67,0.00,,,0.07,meteohub,2013-10-07 06:20:00,
2013-10-06 23:25:00,60.4,49.5,29.76,SE,138,15.0,22.0,67,0.00,,,0.07,meteohub,2013-10-07 06:25:00,
2013-10-06 23:30:00,60.6,49.3,29.75,SE,131,17.0,27.0,66,0.00,,,0.07,meteohub,2013-10-07 06:30:00,
2013-10-06 23:36:00,60.6,49.3,29.75,East,96,7.0,27.0,66,0.00,,,0.07,meteohub,2013-10-07 06:36:00,
2013-10-06 23:41:00,60.4,49.5,29.75,SE,146,18.0,27.0,67,0.00,,,0.07,meteohub,2013-10-07 06:41:00,
2013-10-06 23:46:00,60.4,49.1,29.75,SE,142,8.0,22.0,66,0.00,,,0.07,meteohub,2013-10-07 06:46:00,
2013-10-06 23:51:00,60.4,49.5,29.75,SE,146,14.0,22.0,67,0.00,,,0.07,meteohub,2013-10-07 06:51:00,
2013-10-06 23:56:00,60.4,49.1,29.75,SE,142,11.0,22.0,66,0.00,,,0.07,meteohub,2013-10-07 06:56:00,